Regional Weather Roundup
Issued by NWS Green Bay, WI

Home | Current Version | Previous Version | Text Only | Print | Product List | Glossary On
Versions: 1 2 3 4 5 6 7 8 9 10 11 12 13 14 15 16 17 18 19 20 21 22 23 24 25 26 27 28 29 30 31 32 33 34 35 36 37 38 39 40 41 42 43 44 45 46 47 48 49 50
000
ASUS43 KGRB 271511
RWRGRB

NORTH-CENTRAL AND NORTHEAST WISCONSIN REGIONAL WEATHER ROUNDUP
NATIONAL WEATHER SERVICE GREEN BAY WI
1000 AM CDT THU APR 27 2017

WIZ005-009-010>012-018-019-271600-
NORTH CENTRAL WISCONSIN

CITY           SKY/WX    TMP DP  RH WIND       PRES   REMARKS
IRONWOOD       LGT SNOW  27  25  93 NW9       29.42F VSB 3/4
MANITOWISH WTR LGT SNOW  26  26 100 NW10      29.37R
ARBOR VITAE    LGT SNOW  32  30  93 NW13      29.35R VSB 1
EAGLE RIVER    LGT SNOW  29  28  95 N8        29.35R
LAND O LAKES   LGT SNOW  29  26  92 N12       29.35S
RHINELANDER    MIX PCPN  31  30  96 VRB5      29.36R FOG
PHILLIPS       LGT SNOW  27  25  94 NW12      29.40S
ANTIGO         MIX PCPN  32  32 100 NW8       29.34R
TOMAHAWK       LGT SNOW  29  28  93 NW8       29.38R
MERRILL        LGT SNOW  32  31  99 N6        29.38R VSB 1
$$

WIZ013-073-271600-
NORTHEAST WISCONSIN

CITY           SKY/WX    TMP DP  RH WIND       PRES   REMARKS
IRON MOUNTAIN  LGT RAIN  35  31  85 NW16G22   29.28F FOG
MARINETTE      RAIN      37  36  93 NW7       29.32R FOG
OCONTO         CLOUDY    37  35  92 N8        29.31R
$$

WIZ017-030-035>037-045-271600-
CENTRAL WISCONSIN

CITY           SKY/WX    TMP DP  RH WIND       PRES   REMARKS
MEDFORD        LGT SNOW  28  26  93 NW9       29.39S
WAUSAU         MIX PCPN  32  31  96 NW12G18   29.37R FOG
MOSINEE        LGTSLEET  32  32 100 NW12      29.39R
MARSHFIELD     LGT SNOW  30  27  88 NW15G22   29.41R VSB 3/4
WISC RAPIDS    LGT SNOW  33  32  96 NW12      29.43R VSB 3/4
STEVENS POINT  HVY RAIN  32  32 100 W6        29.39R
WAUPACA        LGT RAIN  37  34  89 W12       29.39R
SHAWANO        RAIN      39  37  89 NW6       29.34R
CLINTONVILLE   LGT RAIN  36  36 100 NW12      29.36R
WAUTOMA        LGT SNOW  34  33  96 MISG        N/A  FOG
$$

WIZ038-039-048-051-271600-
FOX VALLEY

CITY           SKY/WX    TMP DP  RH WIND       PRES   REMARKS
NWS GREEN BAY  LGT RAIN  41  40  96 W10       29.33R
APPLETON       LGT RAIN  37  37 100 W17       29.34R FOG
OSHKOSH        LGT RAIN  39  36  89 W13G21    29.37R
FOND DU LAC    RAIN      40  36  86 W13G24    29.38R
$$

WIZ022-050-052-271600-
EAST CENTRAL WISCONSIN

CITY           SKY/WX    TMP DP  RH WIND       PRES   REMARKS
EPHRAIM        CLOUDY    37  37 100 N12       29.27R FOG
WASHINGTON ISL LGT RAIN  37  36  97 NE10G16   29.27S
STURGEON BAY   LGT RAIN  38  37  97 N15       29.28F FOG
MANITOWOC      CLOUDY    43  40  89 W15       29.31R
SHEBOYGAN      LGT RAIN  44  41  89 W24G31    29.34R FOG
$$

LMZ563-521-522-541>543-271600-
LAKESHORE

STATION/POSITION TIME  TEMP    WIND        PRES    VSBY  WAVE
                       AIR SEA DIR/SP/G                  HT/PER
                 (UTC) (F)     (DEG/KT/KT) (MB)    (MI)  (FT/S)
SHEBOYGAN LKSHOR 1500   45     260/ 20/ 26  992.9R
KEWAUNEE LKSHORE 1448   43     320/  9/ 13  991.0F
NORTHPORT PIER   1440   38      10/  4/  7  991.9R
N MID LAKE BUOY  1450   40 37   60/  6/  8  992.5R         2/ 4
CHAMBERS ISLAND  1440   37     360/ 13/ 16  992.2R
MENOMINEE LKSHOR 1448   38     330/  8/ 10  992.0R
$$




USA.gov is the U.S. government's official web portal to all federal, state and local government web resources and services.